Regional Weather Roundup
Issued by NWS Cleveland, OH

Home | Current Version | Previous Version | Text Only | Print | Product List | Glossary On
Versions: 1 2 3 4 5 6 7 8 9 10 11 12 13 14 15 16 17 18 19 20 21 22 23 24 25 26 27 28 29 30 31 32 33 34 35 36 37 38 39 40 41 42 43 44 45 46 47 48 49 50
000
ASUS41 KCLE 300610
RWRCLE
OHIO REGIONAL WEATHER ROUNDUP
NATIONAL WEATHER SERVICE WILMINGTON, OH
200 AM EDT SAT AUG 30 2014

NOTE: "FAIR" INDICATES FEW OR NO CLOUDS BELOW 12,000 FEET WITH NO
SIGNIFICANT WEATHER AND/OR OBSTRUCTIONS TO VISIBILITY.

OHZ001>008-015>018-024>027-034-035-043-044-300700-
   NORTHWEST OHIO

CITY           SKY/WX    TMP DP  RH WIND       PRES   REMARKS
DEFIANCE       FAIR      73  63  70 S8        30.00F
FINDLAY        FAIR      73  63  70 S8        30.03S
TOLEDO EXPRESS FAIR      70  62  76 S5        30.01F
TOLEDO METCALF FAIR      70  61  73 S7        30.02F
LIMA           FAIR      73  64  73 S8        30.04S
$$

OHZ009>014-019>023-028>033-038-089-300700-
   NORTHEAST OHIO

CITY           SKY/WX    TMP DP  RH WIND       PRES   REMARKS
CLE-HOPKINS    FAIR      68  54  60 S9        30.08S
CLE-LAKEFRONT  FAIR      71  54  54 SE15      30.05S
CUY CO. ARPT   NOT AVBL
LORAIN-ELYRIA  FAIR      70  56  61 S9        30.06F
ASHTABULA      FAIR      63  55  75 SE7       30.10F
AKRON-CANTON   FAIR      68  53  58 S9        30.09F
WOOSTER        FAIR      62  56  80 CALM      30.10F
MANSFIELD      FAIR      68  57  68 S8        30.09F
YOUNGSTOWN     FAIR      64  54  69 SE7       30.11S
$$

OHZ042-051>053-060>062-070>072-077>081-300700-
  SOUTHWEST OHIO

CITY           SKY/WX    TMP DP  RH WIND       PRES   REMARKS
CINC-COVINGTON FAIR      73  68  84 S6        30.05F
CINC-LUNKEN    FAIR      72  71  97 W3        30.05F
HAMILTON       FAIR      72  70  93 E3        30.05F
DAYTON         FAIR      73  67  81 SE8       30.06F
WRIGHT-PAT AFB FAIR      72  67  84 VRB1      30.06S
DAYTON GENERAL FAIR      72  67  84 S6        30.06S
WILMINGTON     FAIR      71  64  78 S5        30.07F
$$

OHZ036-037-039>041-045>050-054>059-063>069-073>076-082>088-300700-
  CENTRAL AND SOUTHEAST OHIO

CITY           SKY/WX    TMP DP  RH WIND       PRES   REMARKS
COLUMBUS       FAIR      77  60  55 SE8       30.07S
OSU AIRPORT    FAIR      74  61  63 SE5       30.07S
BOLTON FIELD   FAIR      68  64  85 CALM      30.08S
RICKENBACK AFB FAIR      73  59  59 S5        30.07S
NEWARK         FAIR      64  62  93 CALM      30.08F
MARION         CLOUDY    70  61  73 S7        30.07F
LANCASTER      MOCLDY    73  62  68 SE6       30.09S
ZANESVILLE     FAIR      66  59  78 CALM      30.10R
NEW PHILLY     FAIR      59  58  96 CALM      30.10F
$$


USA.gov is the U.S. government's official web portal to all federal, state and local government web resources and services.